| time (UTC) | temp F | wind direction | speed MPH | gust MPH | rain 1hr in | rain 24hr in | rain mn in | humidity % | barometer mb |
| 20260831033904 | 60 | 214 | 8.0 | 12.0 | 0.00 | 1.34 | 1.34 | 84 | 1008.1 |
| 20260831032916 | 60 | 228 | 5.0 | 10.0 | 0.00 | 1.34 | 1.34 | 84 | 1008.2 |
| 20260831030744 | 61 | 237 | 5.0 | 7.0 | 0.00 | 1.34 | 1.34 | 82 | 1008.1 |
| 20260831024701 | 62 | 238 | 5.0 | 8.0 | 0.00 | 1.34 | 1.34 | 80 | 1007.9 |
| 20260831023632 | 62 | 233 | 5.0 | 8.0 | 0.00 | 1.34 | 1.34 | 80 | 1007.8 |
| 20260831022611 | 63 | 267 | 5.0 | 8.0 | 0.00 | 1.34 | 1.34 | 78 | 1007.3 |
| 20260831020438 | 64 | 263 | 6.0 | 11.0 | 0.00 | 1.34 | 1.34 | 78 | 1007.6 |
| 20260831015405 | 64 | 251 | 7.0 | 11.0 | 0.00 | 1.34 | 1.34 | 78 | 1007.5 |
| 20260831014341 | 65 | 273 | 5.0 | 9.0 | 0.00 | 1.34 | 1.34 | 77 | 1006.8 |
| 20260831012232 | 66 | 259 | 7.0 | 12.0 | 0.00 | 1.34 | 1.34 | 78 | 1007.0 |
| 20260831011248 | 66 | 269 | 9.0 | 13.0 | 0.00 | 1.34 | 1.34 | 79 | 1006.9 |
| 20260831010239 | 66 | 240 | 7.0 | 13.0 | 0.00 | 1.34 | 1.34 | 81 | 1007.0 |
| 20260831005205 | 66 | 279 | 7.0 | 11.0 | 0.00 | 1.34 | 1.34 | 83 | 1007.5 |
| 20260831004155 | 67 | 240 | 5.0 | 9.0 | 0.00 | 1.34 | 1.34 | 85 | 1007.9 |
| 20260831003201 | 67 | 258 | 7.0 | 11.0 | 0.00 | 1.34 | 1.34 | 85 | 1007.4 |
| 20260831002148 | 67 | 255 | 8.0 | 14.0 | 0.00 | 1.34 | 1.34 | 85 | 1007.4 |
| 20260831001207 | 67 | 268 | 8.0 | 14.0 | 0.00 | 1.34 | 1.34 | 86 | 1007.1 |
| 20260830235032 | 67 | 249 | 4.0 | 6.0 | 0.00 | 1.35 | 1.34 | 89 | 1006.9 |
| 20260830234047 | 67 | 267 | 3.0 | 7.0 | 0.00 | 1.36 | 1.34 | 88 | 1007.2 |
| 20260830231906 | 67 | 285 | 8.0 | 13.0 | 0.03 | 1.35 | 1.33 | 87 | 1007.1 |
| 20260830230912 | 68 | 264 | 7.0 | 11.0 | 0.10 | 1.35 | 1.33 | 88 | 1007.2 |
| 20260830225849 | 69 | 254 | 6.0 | 14.0 | 0.00 | 1.33 | 1.31 | 84 | 1007.3 |
| 20260830224831 | 69 | 292 | 9.0 | 16.0 | 0.00 | 1.33 | 1.31 | 82 | 1006.6 |
| 20260830223816 | 70 | 275 | 11.0 | 21.0 | 0.00 | 1.33 | 1.31 | 81 | 1006.3 |
| 20260830222743 | 70 | 277 | 12.0 | 21.0 | 0.00 | 1.33 | 1.31 | 81 | 1005.7 |
| 20260830220533 | 70 | 331 | 12.0 | 24.0 | 0.00 | 1.33 | 1.31 | 89 | 1005.3 |
| 20260830215541 | 70 | 329 | 14.0 | 24.0 | 0.00 | 1.34 | 1.31 | 90 | 1005.3 |
| 20260830214521 | 69 | 324 | 12.0 | 19.0 | 0.00 | 1.34 | 1.31 | 90 | 1005.4 |
| 20260830213537 | 68 | 342 | 13.0 | 21.0 | 0.00 | 1.34 | 1.31 | 91 | 1005.6 |
| 20260830211357 | 69 | 300 | 14.0 | 23.0 | 0.00 | 1.34 | 1.31 | 90 | 1005.3 |
| 20260830205305 | 68 | 312 | 16.0 | 21.0 | 0.00 | 1.34 | 1.31 | 92 | 1005.2 |
| 20260830204238 | 68 | 288 | 10.0 | 18.0 | 0.00 | 1.33 | 1.30 | 92 | 1006.0 |
| 20260830203215 | 68 | 290 | 3.0 | 11.0 | 0.00 | 1.33 | 1.30 | 95 | 1006.0 |
| 20260830201042 | 65 | 88 | 7.0 | 12.0 | 0.03 | 1.33 | 1.30 | 94 | 1005.8 |
| 20260830200035 | 65 | 136 | 5.0 | 26.0 | 0.11 | 1.33 | 1.30 | 93 | 1005.5 |
| 20260830192808 | 74 | 222 | 5.0 | 14.0 | 2.05 | 0.07 | 0.05 | 85 | 1005.4 |
| 20260830191751 | 74 | 115 | 6.0 | 13.0 | 0.00 | 0.03 | 0.00 | 83 | 1004.6 |
| 20260830190731 | 74 | 124 | 6.0 | 18.0 | 0.00 | 0.03 | 0.00 | 84 | 1005.5 |
| 20260830185713 | 74 | 122 | 8.0 | 18.0 | 0.00 | 0.03 | 0.00 | 84 | 1005.2 |
| 20260830183457 | 75 | 119 | 11.0 | 22.0 | 0.00 | 0.03 | 0.00 | 81 | 1005.5 |
| 20260830182504 | 75 | 125 | 8.0 | 20.0 | 0.00 | 0.03 | 0.00 | 80 | 1005.8 |
| 20260830181514 | 74 | 117 | 9.0 | 16.0 | 0.00 | 0.03 | 0.00 | 81 | 1006.3 |
| 20260830180500 | 75 | 121 | 10.0 | 16.0 | 0.00 | 0.03 | 0.00 | 80 | 1006.4 |
| 20260830175453 | 75 | 148 | 9.0 | 15.0 | 0.00 | 0.03 | 0.00 | 82 | 1006.6 |
| 20260830174420 | 74 | 121 | 10.0 | 16.0 | 0.00 | 0.03 | 0.00 | 83 | 1006.7 |
| 20260830173402 | 73 | 113 | 10.0 | 19.0 | 0.00 | 0.03 | 0.00 | 85 | 1006.9 |
| 20260830172354 | 73 | 94 | 9.0 | 19.0 | 0.00 | 0.03 | 0.00 | 87 | 1006.9 |
| 20260830170151 | 71 | 136 | 9.0 | 14.0 | 0.00 | 0.03 | 0.00 | 88 | 1007.1 |
| 20260830165143 | 71 | 97 | 10.0 | 20.0 | 0.00 | 0.03 | 0.00 | 88 | 1007.3 |
| 20260830164122 | 71 | 109 | 10.0 | 21.0 | 0.00 | 0.03 | 0.00 | 88 | 1007.4 |
| 20260830163139 | 71 | 121 | 8.0 | 21.0 | 0.00 | 0.03 | 0.00 | 88 | 1007.5 |
| 20260830162130 | 71 | 115 | 11.0 | 18.0 | 0.00 | 0.03 | 0.00 | 88 | 1007.5 |
| 20260830161131 | 71 | 131 | 12.0 | 20.0 | 0.00 | 0.03 | 0.00 | 90 | 1007.4 |
| 20260830160149 | 70 | 90 | 10.0 | 23.0 | 0.00 | 0.03 | 0.00 | 91 | 1007.3 |
| 20260830155142 | 70 | 113 | 12.0 | 23.0 | 0.00 | 0.03 | 0.00 | 91 | 1007.3 |
| 20260830154139 | 69 | 119 | 12.0 | 19.0 | 0.00 | 0.03 | 0.00 | 92 | 1007.5 |
| 20260830152048 | 69 | 107 | 13.0 | 19.0 | 0.00 | 0.03 | 0.00 | 95 | 1007.6 |
| 20260830151058 | 68 | 111 | 11.0 | 18.0 | 0.00 | 0.03 | 0.00 | 97 | 1007.8 |
| 20260830150108 | 68 | 112 | 11.0 | 18.0 | 0.00 | 0.03 | 0.00 | 97 | 1007.8 |
| 20260830145122 | 67 | 103 | 11.0 | 19.0 | 0.00 | 0.03 | 0.00 | 97 | 1007.7 |
| 20260830144118 | 67 | 90 | 11.0 | 19.0 | 0.00 | 0.03 | 0.00 | 97 | 1007.8 |
| 20260830143119 | 67 | 107 | 9.0 | 17.0 | 0.00 | 0.03 | 0.00 | 97 | 1008.0 |
| 20260830140942 | 67 | 99 | 9.0 | 16.0 | 0.00 | 0.03 | 0.00 | 97 | 1008.1 |
| 20260830133648 | 66 | 101 | 9.0 | 15.0 | 0.00 | 0.03 | 0.00 | 97 | 1008.5 |
| 20260830132652 | 66 | 101 | 8.0 | 14.0 | 0.00 | 0.03 | 0.00 | 97 | 1008.4 |
| 20260830131705 | 66 | 88 | 9.0 | 15.0 | 0.00 | 0.03 | 0.00 | 96 | 1008.5 |
| 20260830125548 | 64 | 92 | 8.0 | 12.0 | 0.00 | 0.03 | 0.00 | 96 | 1008.6 |
| 20260830124525 | 64 | 83 | 7.0 | 12.0 | 0.00 | 0.03 | 0.00 | 96 | 1008.5 |
| 20260830123539 | 62 | 70 | 4.0 | 7.0 | 0.00 | 0.03 | 0.00 | 96 | 1008.6 |
| 20260830122558 | 61 | 68 | 3.0 | 6.0 | 0.00 | 0.03 | 0.00 | 95 | 1008.7 |
| 20260830121527 | 60 | 59 | 3.0 | 6.0 | 0.00 | 0.03 | 0.00 | 95 | 1008.6 |
| 20260830120535 | 60 | 56 | 2.0 | 4.0 | 0.00 | 0.03 | 0.00 | 94 | 1008.8 |
| 20260830114431 | 60 | 57 | 0.0 | 4.0 | 0.00 | 0.03 | 0.00 | 94 | 1008.9 |
| 20260830113455 | 60 | 57 | 0.0 | 0.0 | 0.00 | 0.03 | 0.00 | 93 | 1009.0 |
| 20260830112503 | 60 | 57 | 0.0 | 0.0 | 0.00 | 0.03 | 0.00 | 93 | 1009.3 |
| 20260830110338 | 60 | 57 | 0.0 | 0.0 | 0.00 | 0.03 | 0.00 | 93 | 1009.3 |
| 20260830104236 | 60 | 57 | 0.0 | 0.0 | 0.00 | 0.03 | 0.00 | 92 | 1009.3 |
| 20260830102102 | 61 | 57 | 0.0 | 0.0 | 0.00 | 0.03 | 0.00 | 90 | 1009.0 |
| 20260830101029 | 61 | 57 | 0.0 | 0.0 | 0.00 | 0.03 | 0.00 | 90 | 1009.3 |
| 20260830100052 | 61 | 62 | 0.0 | 4.0 | 0.00 | 0.03 | 0.00 | 90 | 1009.4 |
| 20260830095024 | 62 | 62 | 2.0 | 4.0 | 0.00 | 0.03 | 0.00 | 90 | 1009.3 |
| 20260830092926 | 62 | 57 | 0.0 | 0.0 | 0.00 | 0.03 | 0.00 | 90 | 1009.5 |
| 20260830085658 | 61 | 64 | 4.0 | 9.0 | 0.00 | 0.03 | 0.00 | 90 | 1009.4 |
| 20260830082401 | 61 | 80 | 3.0 | 8.0 | 0.00 | 0.03 | 0.00 | 86 | 1009.6 |
| 20260830081343 | 61 | 68 | 4.0 | 9.0 | 0.00 | 0.03 | 0.00 | 85 | 1009.5 |
| 20260830080316 | 61 | 60 | 6.0 | 9.0 | 0.00 | 0.03 | 0.00 | 84 | 1009.7 |
| 20260830075322 | 62 | 61 | 7.0 | 9.0 | 0.00 | 0.03 | 0.00 | 83 | 1009.8 |
| 20260830074334 | 62 | 58 | 6.0 | 9.0 | 0.00 | 0.03 | 0.00 | 82 | 1009.9 |
| 20260830073357 | 62 | 61 | 6.0 | 12.0 | 0.00 | 0.03 | 0.00 | 81 | 1010.0 |
| 20260830072332 | 63 | 58 | 8.0 | 12.0 | 0.00 | 0.03 | 0.00 | 79 | 1010.0 |
| 20260830071259 | 64 | 67 | 8.0 | 11.0 | 0.00 | 0.03 | 0.00 | 78 | 1010.2 |
| 20260830070252 | 64 | 71 | 7.0 | 10.0 | 0.00 | 0.03 | 0.00 | 77 | 1010.3 |
| 20260830065309 | 65 | 63 | 7.0 | 10.0 | 0.00 | 0.03 | 0.00 | 76 | 1010.5 |
| 20260830064242 | 65 | 56 | 7.0 | 12.0 | 0.00 | 0.03 | 0.00 | 74 | 1010.7 |
| 20260830063233 | 66 | 69 | 8.0 | 12.0 | 0.00 | 0.03 | 0.00 | 73 | 1010.8 |
| 20260830062244 | 66 | 56 | 7.0 | 13.0 | 0.00 | 0.03 | 0.00 | 72 | 1010.9 |
| 20260830061250 | 66 | 63 | 7.0 | 13.0 | 0.00 | 0.03 | 0.00 | 72 | 1011.0 |
| 20260830060234 | 67 | 61 | 7.0 | 15.0 | 0.00 | 0.03 | 0.00 | 71 | 1011.0 |
| 20260830055259 | 67 | 59 | 9.0 | 15.0 | 0.00 | 0.03 | 0.03 | 70 | 1011.0 |
| 20260830054322 | 67 | 61 | 10.0 | 17.0 | 0.00 | 0.03 | 0.03 | 71 | 1011.0 |
| 20260830053251 | 67 | 55 | 11.0 | 17.0 | 0.00 | 0.03 | 0.03 | 72 | 1010.8 |
| 20260830052235 | 67 | 56 | 11.0 | 19.0 | 0.00 | 0.03 | 0.03 | 73 | 1010.8 |
| 20260830051212 | 67 | 60 | 13.0 | 19.0 | 0.00 | 0.03 | 0.03 | 73 | 1010.7 |
| 20260830050137 | 68 | 38 | 11.0 | 17.0 | 0.00 | 0.03 | 0.03 | 75 | 1010.5 |
| 20260830045152 | 68 | 50 | 11.0 | 17.0 | 0.00 | 0.03 | 0.03 | 75 | 1010.6 |
| 20260830044209 | 68 | 42 | 10.0 | 16.0 | 0.00 | 0.03 | 0.03 | 76 | 1010.8 |
| 20260830043222 | 68 | 57 | 9.0 | 15.0 | 0.00 | 0.03 | 0.03 | 76 | 1011.1 |
| 20260830042244 | 68 | 61 | 13.0 | 21.0 | 0.00 | 0.03 | 0.03 | 76 | 1010.9 |
| 20260830041255 | 69 | 50 | 16.0 | 25.0 | 0.00 | 0.03 | 0.03 | 76 | 1010.5 |
| 20260830040304 | 69 | 55 | 16.0 | 25.0 | 0.00 | 0.03 | 0.03 | 76 | 1010.4 |
| 20260830035309 | 70 | 48 | 16.0 | 24.0 | 0.00 | 0.03 | 0.03 | 76 | 1010.6 |